Home   Weather   Des Moines   Past weeks

Flag for USA Past Weather in Des Moines, Iowa, USA — Yesterday and Last 2 Weeks

Now
88 °F

Scattered clouds.


Feels Like: 99 °F
Forecast: 77 / 93 °F
Wind: 9 mph from Southeast

Location: Des Moines International Airport

Current Time: Jul 21, 2017 at 12:03:14 pm

Latest Report: Jul 21, 2017 at 10:54 am


Visibility: 10 mi

Pressure: 29.84 "Hg

Humidity: 67%

Dew Point: 76 °F

Location of Des MoinesLocation

Past Weather in Des Moines — Graph

°F

Des Moines Temperature Yesterday

Maximum temperature yesterday: 99 °F (at 4:54 pm)
Minimum temperature yesterday: 75 °F (at 11:23 pm)
Average temperature yesterday: 88 °F

High & Low Weather Summary for the Past Weeks

 TemperatureHumidityPressure
High99 °F (Jul 20, 4:54 pm)96% (Jul 11, 6:54 am)30.18 "Hg (Jul 11, 6:54 am)
Low64 °F (Jul 14, 5:54 am)37% (Jul 7, 2:54 pm)29.70 "Hg (Jul 10, 3:54 am)
Average81 °F67%29.95 "Hg
* Reported Jul 6 10:54 am — Jul 21 10:54 am, Des Moines. Weather by CustomWeather, © 2017

Note: Actual official high and low records may vary slightly from our data, if they occured in-between our weather recording intervals... More about our weather records

Advertising

Des Moines Weather History for the Previous 24 Hours

Scroll right to see more
 ConditionsComfort  
Time TempWeatherWind HumidityBarometerVisibility
10:54 am
Fri, Jul 21
88 °FScattered clouds.9 mph67%29.84 "Hg10 mi
9:54 am86 °FPartly sunny.12 mph72%29.86 "Hg10 mi
8:54 am84 °FPartly sunny.8 mph80%29.86 "Hg10 mi
7:54 am80 °FPartly sunny.7 mph87%29.86 "Hg10 mi
6:54 am76 °FPartly sunny.7 mph91%29.85 "Hg10 mi
5:54 am77 °FPartly cloudy.8 mph85%29.85 "Hg10 mi
4:54 am76 °FOvercast.7 mph88%29.86 "Hg10 mi
3:54 am76 °FMostly cloudy.6 mph88%29.87 "Hg10 mi
2:54 am76 °FOvercast.6 mph88%29.90 "Hg10 mi
1:54 am76 °FMostly cloudy.3 mph91%29.89 "Hg10 mi
12:54 am76 °FMostly cloudy.7 mph91%29.90 "Hg10 mi
11:54 pm
Thu, Jul 20
77 °FLight rain. Mostly cloudy.6 mph85%29.88 "Hg10 mi
11:23 pm75 °FLight rain. Mostly cloudy.15 mph94%29.91 "Hg10 mi
10:54 pm78 °FThunderstorms. Mostly cloudy.12 mph82%29.90 "Hg10 mi
9:54 pm83 °FThunderstorms. Overcast.15 mph82%29.90 "Hg10 mi
9:05 pm92 °FThunderstorms. Mostly cloudy.3 mph60%29.90 "Hg10 mi
8:54 pm92 °FPassing clouds.3 mph60%29.87 "Hg10 mi
7:54 pm95 °FMostly cloudy.3 mph49%29.86 "Hg10 mi
6:54 pm95 °FPartly sunny.5 mph49%29.87 "Hg10 mi
5:54 pm99 °FPartly sunny.7 mph43%29.88 "Hg10 mi
4:54 pm99 °FPassing clouds.5 mph43%29.87 "Hg10 mi
3:54 pm98 °FScattered clouds.7 mph45%29.89 "Hg10 mi
2:54 pm96 °FScattered clouds.6 mph46%29.90 "Hg10 mi
1:54 pm94 °FScattered clouds.3 mph51%29.91 "Hg10 mi
12:54 pm92 °FScattered clouds.6 mph54%29.92 "Hg10 mi
Weather by CustomWeather, © 2017

See weather overviewHow to use our weather pages